Wind_Speed
32 33 32 32 29 29 29 31 31 32 32 29 28 29 28 24 21 19 17 17 17 15 15 14 14 13 11 8 5 6 8 9 7 6 4 4 4 5
35 33 31 31 28 28 30 31 30 30 30 29 28 28 26 22 20 20 18 17 16 18 21 16 13 9 8 7 8 8 7 7 6 5 4 4 6 8
31 29 29 29 28 28 29 29 29 30 29 30 29 28 27 24 19 17 15 15 17 20 18 16 13 11 12 11 9 8 8 8 8 7 6 6 8 10
31 29 29 29 29 28 29 29 30 29 28 28 30 26 25 24 20 16 14 15 15 17 16 16 15 16 18 15 13 12 10 9 8 8 8 9 10 12
32 31 30 29 30 29 29 29 29 28 28 28 29 26 26 24 22 18 16 15 15 16 13 13 15 17 18 18 17 15 12 10 9 10 11 12 13 14
34 33 31 30 32 31 31 30 29 28 28 30 28 26 26 25 23 18 21 18 14 15 14 15 18 18 18 19 19 17 16 16 15 14 13 13 14 16
36 35 32 31 32 32 32 32 31 30 29 29 29 28 27 26 24 22 23 21 18 15 15 15 15 17 17 18 20 21 22 22 21 20 17 15 15 16
35 36 37 37 34 32 29 28 29 28 27 28 28 28 28 28 29 28 27 24 22 16 15 17 17 15 14 15 19 23 25 26 26 24 23 21 19 19
34 34 33 34 34 33 30 27 26 26 28 28 28 29 29 31 30 28 31 30 26 24 19 18 20 19 17 18 20 23 25 27 28 25 25 26 25 25
32 33 32 33 33 33 33 34 33 32 31 30 30 32 33 30 33 34 32 34 32 29 26 23 22 21 20 20 22 25 25 25 24 22 24 26 27 27
30 30 31 33 34 36 36 36 36 36 36 34 35 36 38 38 35 32 28 25 23 21 28 29 27 24 18 18 22 22 22 24 25 25 24 22 21 23
33 33 32 31 34 36 36 36 36 36 36 36 37 37 38 41 39 34 35 32 27 29 25 23 26 26 22 21 22 24 23 21 22 23 22 20 19 20
35 35 34 35 38 37 35 36 37 38 38 36 35 37 38 37 35 32 32 34 32 27 24 23 26 27 27 28 28 28 27 24 20 19 19 21 20 20
35 33 35 36 35 37 37 37 38 37 36 36 36 35 34 33 33 31 30 30 33 32 30 30 31 29 28 28 28 28 27 25 23 22 23 25 24 22
36 36 35 35 35 37 36 36 38 38 37 38 39 38 37 36 35 32 29 29 29 31 32 33 34 35 35 34 32 32 30 29 27 25 24 24 25 25
29 32 34 36 36 38 38 38 41 44 43 40 41 42 42 40 37 36 35 34 32 33 34 34 34 35 37 38 37 36 35 33 31 30 30 28 28 28
26 27 27 26 26 26 28 31 36 41 44 43 43 44 45 44 41 39 37 37 36 36 36 37 37 36 37 37 38 38 36 35 33 32 32 32 31 30
32 33 31 29 27 28 29 29 27 27 27 28 30 36 40 43 43 41 40 39 39 38 37 37 38 39 39 39 39 40 39 38 35 33 32 31 30 29
43 41 39 37 35 35 36 35 30 26 24 23 23 26 29 33 35 36 37 37 37 39 39 39 39 38 38 38 38 38 39 37 35 33 32 31 30 29
50 49 48 47 46 44 43 42 41 39 38 36 32 30 30 30 30 30 31 33 34 35 35 36 36 36 37 38 37 37 38 38 36 35 34 32 32 31
52 53 53 52 53 53 52 52 51 51 49 46 44 41 38 36 35 35 35 35 35 36 36 37 36 36 36 37 39 38 39 39 39 38 38 37 36 35
49 51 53 56 58 58 58 58 58 59 58 56 53 51 49 47 46 45 43 41 40 38 38 40 42 40 39 39 40 41 40 41 42 42 42 42 41 40
48 50 52 54 55 57 58 58 60 61 61 60 58 56 54 53 52 51 50 48 47 46 44 44 43 41 42 43 43 43 41 41 43 44 46 46 46 45
Wind_Direction
276 278 281 283 283 281 276 273 269 269 270 273 276 278 280 278 274 276 272 270 265 270 272 264 267 273 270 261 241 212 192 180 183 194 221 263 270 259
277 276 277 279 281 279 276 273 269 267 266 266 271 274 273 276 277 275 272 263 252 249 267 263 254 246 230 207 198 205 205 195 201 212 250 293 294 278
275 276 278 277 277 278 278 276 273 269 266 264 267 274 270 270 274 277 269 261 258 257 258 256 241 217 198 199 209 218 228 236 240 250 272 283 282 287
272 273 274 274 274 277 277 277 277 273 272 268 264 266 264 262 265 268 259 253 258 254 250 242 231 211 200 206 218 229 236 249 261 268 273 276 284 293
269 270 271 270 270 272 275 275 274 270 267 268 264 261 258 259 263 263 258 244 243 248 236 227 226 219 214 218 222 230 242 259 277 287 287 284 287 293
271 272 270 270 270 271 273 272 270 267 261 261 262 257 257 263 264 255 247 233 244 248 237 227 223 221 222 224 226 234 249 268 282 290 291 293 294 294
273 272 267 268 271 276 275 268 265 263 256 255 258 259 258 254 256 250 255 242 242 246 242 237 236 236 235 237 245 251 256 262 268 274 282 291 297 298
271 268 265 265 269 272 273 267 261 255 250 249 252 256 255 249 248 249 248 251 241 239 244 243 242 246 249 254 259 264 266 265 265 266 268 275 286 295
268 269 269 265 263 264 262 259 257 253 249 248 251 253 256 250 245 247 254 251 250 245 237 239 242 245 244 247 262 273 274 276 272 265 260 264 273 282
268 267 263 258 257 258 257 257 258 257 252 248 248 249 256 258 242 233 242 243 251 242 235 237 239 249 247 245 255 263 268 279 282 274 271 278 281 283
262 261 259 255 254 253 252 254 257 258 255 254 254 252 253 255 252 250 245 231 222 232 230 230 238 244 238 240 247 258 264 278 283 278 274 280 286 294
255 257 257 258 256 251 250 251 254 255 252 252 253 253 253 255 256 253 247 239 229 221 225 229 236 245 244 242 247 256 261 269 279 283 272 267 270 284
254 258 260 262 257 253 254 256 259 259 253 249 250 249 249 251 254 255 254 256 260 253 246 246 247 250 252 255 259 260 262 263 266 271 266 268 274 285
254 251 254 259 261 264 266 263 263 261 257 251 247 249 248 247 250 247 245 244 250 252 250 249 249 250 252 255 259 262 264 266 265 263 264 271 278 285
254 251 248 252 257 261 265 265 265 267 267 259 252 249 250 251 254 256 253 250 247 248 250 251 251 253 255 257 258 260 262 264 264 265 266 270 274 280
260 257 257 258 259 260 263 264 265 266 266 265 261 255 251 251 254 257 257 255 252 251 251 253 255 256 257 258 259 260 260 260 262 264 263 266 271 277
276 271 269 270 270 268 268 267 265 264 261 260 258 255 253 251 250 255 259 258 256 254 253 254 256 258 259 259 259 258 257 256 257 260 261 264 269 273
272 266 264 264 265 267 269 271 270 264 257 254 253 252 251 249 248 249 250 253 255 255 254 254 254 255 255 257 257 257 257 257 257 256 255 257 262 264
272 269 265 262 258 257 260 264 262 257 252 251 250 250 249 247 245 245 246 249 252 254 254 254 254 253 253 254 255 257 257 257 256 255 254 254 256 258
263 263 263 262 260 257 256 257 258 255 253 253 254 252 248 246 246 247 249 252 253 252 253 253 253 254 254 255 254 254 254 254 253 252 252 252 254 255
263 260 258 257 258 258 257 257 256 257 257 257 258 259 259 259 258 256 255 255 254 253 253 253 253 255 257 258 257 254 254 254 253 252 253 253 253 253
269 265 261 259 258 257 257 257 256 255 255 256 257 259 261 262 263 261 259 256 252 251 251 253 254 253 255 256 258 257 254 254 253 252 252 253 253 254
277 272 267 262 259 258 257 257 256 255 254 254 255 258 260 261 262 262 261 258 252 250 250 252 255 257 257 258 257 258 257 255 253 251 250 250 251 253
Height
5821 5821 5821 5820 5819 5818 5818 5817 5817 5815 5814 5813 5813 5813 5812 5811 5809 5809 5810 5809 5808 5807 5806 5807 5808 5808 5809 5810 5810 5812 5814 5815 5817 5820 5821 5821 5821 5821
5814 5813 5812 5812 5811 5810 5810 5810 5809 5808 5807 5806 5805 5806 5807 5806 5805 5803 5804 5805 5804 5804 5803 5804 5803 5804 5806 5808 5810 5813 5815 5814 5816 5818 5818 5818 5818 5818
5804 5805 5805 5804 5804 5804 5803 5803 5802 5802 5800 5800 5800 5800 5801 5801 5801 5800 5799 5799 5799 5799 5799 5800 5800 5801 5803 5805 5808 5811 5813 5813 5814 5815 5815 5815 5815 5814
5797 5798 5798 5797 5797 5797 5797 5796 5797 5798 5796 5795 5795 5795 5797 5796 5795 5796 5796 5796 5796 5796 5796 5797 5798 5799 5801 5804 5806 5809 5810 5812 5812 5812 5812 5811 5810 5810
5790 5790 5790 5789 5791 5790 5790 5789 5790 5789 5790 5790 5790 5791 5792 5791 5791 5791 5792 5792 5792 5792 5792 5794 5796 5798 5800 5801 5803 5806 5808 5808 5808 5809 5809 5807 5806 5806
5782 5782 5783 5782 5783 5783 5782 5782 5782 5782 5783 5783 5783 5784 5784 5785 5786 5786 5787 5787 5787 5787 5788 5790 5793 5795 5797 5799 5802 5803 5804 5805 5805 5806 5805 5804 5803 5803
5774 5775 5776 5776 5775 5775 5775 5775 5775 5775 5776 5777 5777 5778 5778 5779 5780 5780 5780 5781 5782 5783 5785 5787 5789 5792 5794 5796 5798 5799 5800 5800 5800 5801 5802 5801 5800 5798
5765 5767 5767 5767 5767 5768 5768 5767 5767 5768 5768 5770 5772 5772 5772 5772 5772 5773 5774 5776 5776 5778 5780 5782 5784 5787 5789 5792 5793 5793 5794 5795 5796 5796 5796 5796 5795 5793
5755 5756 5757 5757 5758 5759 5761 5762 5761 5761 5762 5763 5764 5765 5765 5765 5767 5767 5766 5768 5770 5771 5774 5776 5778 5781 5784 5787 5787 5787 5787 5789 5790 5791 5791 5791 5790 5789
5744 5745 5747 5749 5750 5750 5752 5753 5753 5753 5753 5754 5755 5756 5757 5758 5759 5761 5761 5761 5764 5767 5768 5770 5771 5773 5776 5779 5781 5781 5782 5783 5784 5785 5785 5785 5784 5782
5735 5737 5738 5739 5740 5741 5742 5743 5744 5744 5745 5745 5746 5747 5748 5749 5751 5752 5754 5755 5758 5758 5758 5761 5763 5766 5769 5771 5773 5774 5775 5776 5776 5777 5778 5779 5778 5777
5725 5727 5728 5729 5731 5731 5732 5733 5734 5734 5734 5734 5736 5738 5739 5740 5742 5744 5745 5747 5749 5750 5752 5754 5755 5759 5761 5763 5765 5768 5769 5770 5770 5771 5772 5774 5774 5773
5715 5716 5717 5719 5720 5721 5722 5723 5723 5723 5723 5724 5726 5728 5730 5730 5732 5735 5736 5738 5741 5744 5746 5748 5749 5752 5754 5756 5759 5761 5763 5763 5764 5765 5766 5768 5768 5768
5703 5705 5707 5708 5709 5711 5712 5712 5713 5713 5714 5715 5716 5717 5719 5720 5721 5725 5729 5731 5733 5735 5739 5741 5742 5745 5747 5750 5753 5754 5756 5757 5757 5758 5759 5761 5762 5762
5694 5695 5696 5697 5698 5699 5700 5701 5702 5704 5705 5706 5707 5708 5708 5709 5711 5713 5717 5721 5724 5727 5729 5732 5734 5736 5738 5740 5744 5746 5747 5749 5751 5751 5752 5753 5754 5755
5684 5685 5686 5687 5687 5688 5688 5689 5691 5692 5694 5695 5696 5697 5699 5701 5702 5703 5705 5709 5713 5717 5719 5722 5724 5726 5728 5730 5733 5736 5738 5740 5742 5743 5744 5746 5746 5747
5677 5677 5676 5676 5676 5677 5677 5678 5679 5679 5681 5683 5684 5686 5688 5690 5693 5695 5696 5698 5701 5704 5707 5710 5712 5715 5717 5719 5722 5725 5729 5731 5734 5735 5736 5737 5739 5740
5668 5668 5668 5668 5668 5668 5669 5669 5670 5669 5669 5670 5671 5673 5676 5679 5681 5683 5686 5689 5692 5694 5696 5699 5702 5704 5707 5709 5711 5714 5717 5720 5723 5724 5726 5728 5730 5733
5656 5656 5657 5658 5659 5659 5660 5660 5661 5661 5662 5662 5663 5664 5666 5668 5670 5672 5675 5678 5681 5683 5686 5688 5691 5694 5696 5698 5700 5702 5705 5708 5710 5712 5715 5718 5722 5724
5643 5643 5643 5644 5645 5647 5648 5649 5649 5651 5652 5653 5654 5655 5657 5659 5661 5663 5665 5668 5670 5672 5675 5678 5680 5682 5684 5687 5690 5693 5695 5697 5699 5702 5704 5708 5712 5716
5626 5626 5626 5627 5628 5630 5632 5635 5636 5637 5639 5641 5642 5644 5646 5648 5651 5653 5655 5658 5660 5661 5664 5666 5668 5670 5672 5675 5678 5681 5684 5687 5689 5691 5694 5697 5702 5706
5609 5609 5609 5610 5611 5612 5615 5617 5619 5621 5623 5625 5628 5631 5633 5635 5637 5639 5643 5647 5650 5650 5651 5653 5655 5659 5660 5663 5666 5667 5672 5675 5677 5680 5683 5686 5689 5694
5592 5592 5591 5592 5593 5594 5596 5598 5600 5601 5603 5607 5611 5614 5617 5620 5622 5624 5627 5630 5634 5637 5640 5640 5642 5645 5647 5650 5652 5655 5659 5662 5665 5668 5671 5674 5677 5681